User: anonymous   Login
Location: Carabito
(9.8355°N, 67.9249°W)
Time: 16:47:06
(UTC+00:00)
Language:

Ariane H10 - Orbit

View from above orbital plane
View from above orbital plane
View from above satellite
View from above satellite

Ground track
Ground track

The orbit data is extracted from the following two-line orbital elements,

1 15388U 84114C   24204.38036232  .00000906  00000-0  15878-2 0  9998
2 15388   7.2166  91.3291 6889665 263.5763  20.3774  2.71904128286052
Epoch (UTC): 22 July 2024 09:07:43
Eccentricity: 0.6889665
inclination: 7.2166°
perigee height: 366 km
apogee height: 30244 km
right ascension of ascending node: 91.3291°
argument of perigee: 263.5763°
revolutions per day: 2.71904128
mean anomaly at epoch: 20.3774°
orbit number at epoch: 28605

The dashed part of the orbit path shows where the satellite is in the earth's shadow,  

DLR